Time,TemperatureF,DewpointF,PressureIn,WindDirection,WindDirectionDegrees,WindSpeedMPH,WindSpeedGustMPH,Humidity,HourlyPrecipIn,Conditions,Clouds,dailyrainin,SolarRadiationWatts/m^2,SoftwareType,DateUTC
2013-03-28 14:52:00,36.0,20.0,-100.00,North,349,9.0,19.0,51,-99.99,,,0.02,218.000000,,2013-03-28 18:52:00,
2013-03-28 15:02:00,36.0,20.0,-100.00,North,349,9.0,19.0,51,-99.99,,,0.02,218.000000,,2013-03-28 19:02:00,
2013-03-28 15:12:00,36.0,20.0,-100.00,North,349,9.0,19.0,51,-99.99,,,0.02,218.000000,,2013-03-28 19:12:00,
2013-03-28 15:43:00,37.0,22.0,-100.00,NNW,343,7.0,16.0,54,0.00,,,0.02,202.000000,,2013-03-28 19:43:00,
2013-03-28 15:52:00,37.0,22.0,-100.00,NNW,343,7.0,16.0,54,0.00,,,0.02,202.000000,,2013-03-28 19:52:00,
2013-03-28 16:03:00,37.0,22.0,-100.00,NNW,343,7.0,16.0,54,0.00,,,0.02,202.000000,,2013-03-28 20:03:00,
2013-03-28 16:12:00,37.0,22.0,-100.00,NNW,343,7.0,16.0,54,0.00,,,0.02,202.000000,,2013-03-28 20:12:00,
2013-03-28 16:42:00,36.0,20.0,-100.00,North,356,11.0,19.0,52,0.00,,,0.02,191.000000,,2013-03-28 20:42:00,
2013-03-28 16:53:00,36.0,20.0,-100.00,North,356,11.0,19.0,52,0.00,,,0.02,191.000000,,2013-03-28 20:53:00,
2013-03-28 17:03:00,36.0,20.0,-100.00,North,356,11.0,19.0,52,0.00,,,0.02,191.000000,,2013-03-28 21:03:00,
2013-03-28 17:12:00,36.0,20.0,-100.00,North,356,11.0,19.0,52,0.00,,,0.02,191.000000,,2013-03-28 21:12:00,
2013-03-28 17:43:00,36.0,21.0,-100.00,NNW,339,8.0,15.0,54,0.00,,,0.02,138.000000,,2013-03-28 21:43:00,
2013-03-28 17:53:00,36.0,21.0,-100.00,NNW,339,8.0,15.0,54,0.00,,,0.02,138.000000,,2013-03-28 21:53:00,
2013-03-28 18:03:00,36.0,21.0,-100.00,NNW,339,8.0,15.0,54,0.00,,,0.02,138.000000,,2013-03-28 22:03:00,
2013-03-28 18:13:00,36.0,21.0,-100.00,NNW,339,8.0,15.0,54,0.00,,,0.02,138.000000,,2013-03-28 22:13:00,
2013-03-28 18:42:00,35.0,21.0,-100.00,NNW,341,8.0,19.0,57,0.00,,,0.02,87.000000,,2013-03-28 22:42:00,
2013-03-28 18:53:00,35.0,21.0,-100.00,NNW,341,8.0,19.0,57,0.00,,,0.02,87.000000,,2013-03-28 22:53:00,
2013-03-28 19:03:00,35.0,21.0,-100.00,NNW,341,8.0,19.0,57,0.00,,,0.02,87.000000,,2013-03-28 23:03:00,
2013-03-28 19:12:00,35.0,21.0,-100.00,NNW,341,8.0,19.0,57,0.00,,,0.02,87.000000,,2013-03-28 23:12:00,
2013-03-28 19:42:00,34.0,21.0,-100.00,NNW,346,7.0,17.0,58,0.00,,,0.02,33.000000,,2013-03-28 23:42:00,
2013-03-28 19:53:00,34.0,21.0,-100.00,NNW,346,7.0,17.0,58,0.00,,,0.02,33.000000,,2013-03-28 23:53:00,
2013-03-28 20:03:00,34.0,21.0,-100.00,NNW,346,7.0,17.0,58,0.00,,,0.02,33.000000,,2013-03-29 00:03:00,
2013-03-28 20:12:00,34.0,21.0,-100.00,NNW,346,7.0,17.0,58,0.00,,,0.02,33.000000,,2013-03-29 00:12:00,
2013-03-28 20:42:00,33.0,21.0,-100.00,NNW,346,7.0,14.0,61,0.00,,,-99.99,2.000000,,2013-03-29 00:42:00,
2013-03-28 20:52:00,33.0,21.0,-100.00,NNW,346,7.0,14.0,61,0.00,,,-99.99,2.000000,,2013-03-29 00:52:00,
2013-03-28 21:02:00,33.0,21.0,-100.00,NNW,346,7.0,14.0,61,0.00,,,-99.99,2.000000,,2013-03-29 01:02:00,
2013-03-28 21:12:00,33.0,21.0,-100.00,NNW,346,7.0,14.0,61,0.00,,,-99.99,2.000000,,2013-03-29 01:12:00,
2013-03-28 21:42:00,33.0,22.0,-100.00,NNW,327,6.0,11.0,63,0.00,,,-99.99,0.000000,,2013-03-29 01:42:00,
2013-03-28 21:53:00,33.0,22.0,-100.00,NNW,327,6.0,11.0,63,0.00,,,-99.99,0.000000,,2013-03-29 01:53:00,
2013-03-28 22:03:00,33.0,22.0,-100.00,NNW,327,6.0,11.0,63,0.00,,,-99.99,0.000000,,2013-03-29 02:03:00,
2013-03-28 22:12:00,33.0,22.0,-100.00,NNW,327,6.0,11.0,63,0.00,,,-99.99,0.000000,,2013-03-29 02:12:00,
2013-03-28 22:42:00,33.0,24.0,-100.00,NW,309,9.0,14.0,69,0.00,,,-99.99,0.000000,,2013-03-29 02:42:00,
2013-03-28 22:53:00,33.0,24.0,-100.00,NW,309,9.0,14.0,69,0.00,,,-99.99,0.000000,,2013-03-29 02:53:00,
2013-03-28 23:02:00,33.0,24.0,-100.00,NW,309,9.0,14.0,69,0.00,,,-99.99,0.000000,,2013-03-29 03:02:00,
2013-03-28 23:12:00,33.0,24.0,-100.00,NW,309,9.0,14.0,69,0.00,,,-99.99,0.000000,,2013-03-29 03:12:00,
2013-03-28 23:43:00,31.0,26.0,-100.00,NW,306,7.0,14.0,80,0.00,,,-99.99,0.000000,,2013-03-29 03:43:00,
2013-03-28 23:53:00,31.0,26.0,-100.00,NW,306,7.0,14.0,80,0.00,,,-99.99,0.000000,,2013-03-29 03:53:00,